Location: Julian California
(33.0790°N, 116.6010°W)
Time: 23:59:35
(UTC-07:00)

Cosmos 1697 Rocket - Pass Details

Date: 29 March 2019
Orbit: 834 x 842 km, 71.0° (Epoch: 23 April)

Event Time Altitude Azimuth Distance (km) Brightness Sun altitude
Rises 05:07:13 0° 333° (NNW) 3,384 5.7 -19.6°
Reaches altitude 10° 05:09:43 10° 328° (NNW) 2,446 5.0 -19.1°
Maximum altitude 05:15:06 50° 254° (WSW) 1,055 2.8 -18.0°
Drops below altitude 10° 05:20:27 10° 180° (S) 2,429 4.9 -16.9°
Sets 05:22:56 0° 175° (S) 3,360 5.7 -16.4°
